Regional Weather Roundup
Issued by NWS Kansas City/Pleasant Hill, MO

Home | Current Version | Previous Version | Text Only | Print | Product List | Glossary On
Versions: 1 2 3 4 5 6 7 8 9 10 11 12 13 14 15 16 17 18 19 20 21 22 23 24 25 26 27 28 29 30 31 32 33 34 35 36 37 38 39 40 41 42 43 44 45 46 47 48 49 50
000
ASUS43 KEAX 290610
RWREAX

WEATHER ROUNDUP FOR EASTERN KANSAS AND NORTHWEST MISSOURI
NATIONAL WEATHER SERVICE KANSAS CITY/PLEASANT HILL MO
100 AM CDT MON MAY 29 2017

KSZ040-057-103>105-MOZ028-029-037-043-290700-
...KANSAS CITY METROPOLITAN AREA...

CITY           SKY/WX    TMP DP  RH WIND       PRES   REMARKS
K.C. INTL      CLEAR     58  51  78 S7        29.94R
6HR MIN TEMP:  58; 6HR MAX TEMP:  77;

K.C. DOWNTOWN  CLEAR     64  54  69 SW6       29.93R
6HR MIN TEMP:  63; 6HR MAX TEMP:  80;

LEES SUMMIT    CLEAR     64  53  67 SW3       29.96R
6HR MIN TEMP:  62; 6HR MAX TEMP:  78;

OLATHE - IXD   CLEAR     59  51  75 S5        29.97R
6HR MIN TEMP:  59; 6HR MAX TEMP:  77;

OLATHE - OJC   CLEAR     60  52  74 CALM      29.96R
6HR MIN TEMP:  59; 6HR MAX TEMP:  77;

LAWRENCE       CLEAR     56  54  93 CALM      29.95R

$$

MOZ001>008-011>017-020>025-030>033-038>040-044>046-053-054-290700-
...NORTHERN AND CENTRAL MISSOURI...

CITY           SKY/WX    TMP DP  RH WIND       PRES   REMARKS
ST. JOSEPH     CLEAR     60  54  80 SW3       29.91F
6HR MIN TEMP:  57; 6HR MAX TEMP:  81;

MOSBY          CLEAR     57  54  88 CALM      29.93R
WARRENSBURG    CLEAR     59  52  77 W3        29.96R
WHITEMAN AFB   CLEAR     61  57  86 W9        29.95R
6HR MIN TEMP:  59; 6HR MAX TEMP:  78;

CLINTON        PTCLDY    63  54  72 CALM      29.95F
SEDALIA        CLEAR     63  57  81 SW8       29.96R
6HR MIN TEMP:  63; 6HR MAX TEMP:  78;

WARSAW         NOT AVBL
CHILLICOTHE      N/A     60  51  72 CALM      29.91S
6HR MIN TEMP:  60; 6HR MAX TEMP:  79;

KIRKSVILLE     CLEAR     57  50  77 NW3       29.88F
6HR MIN TEMP:  56; 6HR MAX TEMP:  77;


$$

MOZ041-047>049-056>058-063>065-088>090-097-290700-
...EASTERN AND SOUTHERN MISSOURI...

CITY           SKY/WX    TMP DP  RH WIND       PRES   REMARKS
ST. LOUIS INTL PTCLDY    69  56  62 SW10      29.89S
6HR MIN TEMP:  69; 6HR MAX TEMP:  80;

SPIRIT OF STL  CLEAR     62  58  86 W9        29.89S
COLUMBIA       MOCLDY    63  56  78 S8        29.93R
JEFFERSON CITY CLEAR     64  57  78 CALM      29.92R
ROLLA          CLEAR     60  56  86 SW9       29.94R
OSAGE BEACH    CLEAR     59  57  93 CALM      29.96S
SPRINGFIELD    CLOUDY    62  56  80 SW8       29.98S
BRANSON        CLOUDY    61  55  82 CALM      30.00S
JOPLIN         CLEAR     62  56  80 S3        30.00S
WEST PLAINS    CLOUDY    60  55  83 SW3       29.98S

$$

IAZ060-094-KSZ022-034>040-054-083-096-NEZ052-066-093-290700-
...KANSAS...SOUTHEAST NEBRASKA AND IOWA...

CITY           SKY/WX    TMP DP  RH WIND       PRES   REMARKS
TOPEKA         CLEAR     61  55  81 CALM      29.94R
6HR MIN TEMP:  61; 6HR MAX TEMP:  80;

MANHATTAN      CLEAR     59  52  77 SW5       29.95S
EMPORIA        CLEAR     61  51  70 SW3       29.99R
CHANUTE        CLEAR     61  50  67 CALM      29.99S
WICHITA        CLEAR     59  49  69 SW6       30.01R
OMAHA          PTCLDY    58  47  66 SE3       29.86F
LINCOLN        CLEAR     61  46  57 W5        29.91S
FALLS CITY     CLEAR     58  46  64 SW5       29.90F
LAMONI         CLEAR     59  45  59 SW5       29.87F
DES MOINES     CLEAR     59  46  62 W7        29.84S

$$




USA.gov is the U.S. government's official web portal to all federal, state and local government web resources and services.